sat.trackr.live / text

‹ back to catalog

KUIPER-00147

NORAD 65768 · 2025-217G

PAYLOAD ACTIVE UNKNOWN

§ Identity

Operator
Country
US
Launch date
2025-09-25
Launch site
AFETR
Launch vehicle
Mass (kg)
RCS (m²)

External: N2YO · Heavens-Above · Gunter

§ Orbital elements

Epoch: 2026-05-25T03:55:27.892128Z

Period
97.30 min
Inclination
51.8994°
Eccentricity
0.0001171
Mean motion
14.79941627 rev/d
Perigee alt
628.7 km
Apogee alt
630.3 km
Semi-major
7,007.6 km
B*
5.0284e-4
RAAN
62.4232°
Arg perigee
73.3054°
Mean anomaly
286.8036°
Rev number
3,623

§ Raw data

KUIPER-001471 65768U 25217G   26145.16351727  .00003615  00000+0  50284-3 0  99952 65768  51.8994  62.4232 0001171  73.3054 286.8036 14.79941627 36238

JSON: /api/v1/satellites/65768 · /tle

For live sub-satellite position, see the globe view (requires WebGL).

§ Visibility from observer

Set your observer location to see the next 7 days of passes ≥ 10°. The values pass through the URL so the page stays shareable.

No JS? Fill the form by hand. The geolocation button needs JavaScript.